Current Weather Conditions: station ENSL

sailwx.info

See reports from other nearby stations

no recent reports received from weather station ID ENSL

Tides Pressure Air temp Water temp Dewpoint Dewpoint depression Visibility Wind speed Wind direction Waves Ship positions
date/time (UTC)wind fromknots sea level pressurealtimeterstation pressurevisibilityair tempwater tempwave heightnotes
2017-Nov-20 12:50 070 5 5.4 6.0
2017-Nov-20 12:20 050 5 5.4 6.0
2017-Nov-20 11:50 070 5 5.4 7.0
2017-Nov-20 11:20 070 5 5.4 6.0
2017-Nov-20 10:50 070 6 5.4 6.0
2017-Nov-20 10:20 080 5 5.4 6.0
2017-Nov-20 09:50 070 5 5.4 6.0
2017-Nov-20 09:20 080 6 5.4 6.0
2017-Nov-20 08:50 080 6 5.4 6.0
2017-Nov-20 08:20 5.4 6.0
2017-Nov-20 07:50 060 0 5.4 6.0
2017-Nov-20 07:20 5.4 6.0
2017-Nov-20 06:50 5.4 6.0
2017-Nov-20 06:20 020 6 5.4 6.0
2017-Nov-20 05:50 020 7 5.4 6.0
2017-Nov-20 05:20 360 8 5.4 6.0
2017-Nov-20 04:50 360 9 5.4 6.0
2017-Nov-20 04:20 330 8 5.4 6.0
2017-Nov-20 03:50 330 9 5.4 7.0
2017-Nov-20 03:20 320 7 5.4 6.0
2017-Nov-20 02:50 320 11 5.4 7.0
2017-Nov-20 02:20 340 13 5.4 6.0
2017-Nov-20 01:50 320 13 5.4 7.0
2017-Nov-20 01:20 5.4 7.0
2017-Nov-20 00:50 320 13 5.4 7.0
2017-Nov-20 00:20
2017-Nov-19 23:50
2017-Nov-19 23:20
2017-Nov-19 22:50
2017-Nov-19 22:20
2017-Nov-19 21:50 330 20
2017-Nov-19 21:20 330 18 5.4 7.0
2017-Nov-19 20:50 330 20 5.4 7.0
2017-Nov-19 20:20 340 25 5.4 6.0
2017-Nov-19 19:50 320 14 gusting 27 5.4 6.0
2017-Nov-19 19:20 330 25 5.4 6.0
2017-Nov-19 18:50 300 24 5.4 6.0
2017-Nov-19 18:20 310 27 5.4 7.0
2017-Nov-19 17:50 320 25 5.4 7.0
2017-Nov-19 17:20 320 25 5.4 7.0
2017-Nov-19 16:50 320 22 gusting 33 5.4 7.0
2017-Nov-19 16:20 330 29 5.4 7.0
2017-Nov-19 15:50 320 26 gusting 41 5.4 6.0 Light rain showers.
2017-Nov-19 15:20 330 29 5.4 8.0
2017-Nov-19 14:50 330 32 5.4 7.0
2017-Nov-19 14:20 330 31 5.4 8.0 Light rain showers.
2017-Nov-19 13:50 330 32 5.4 8.0
2017-Nov-19 13:20 330 32 5.4 8.0
2017-Nov-19 12:50 330 32 5.4 8.0
2017-Nov-19 11:50 330 34 5.4 8.0
2017-Nov-19 11:20 320 36 5.4 8.0
2017-Nov-19 07:50 330 42 8.0 Showers in the vicinity.
2017-Nov-18 16:50 310 52 5.4 8.0 Light rain showers.
2017-Nov-18 16:20 320 46 gusting 56 5.4 8.0 Light rain showers.
2017-Nov-18 15:50 310 45 gusting 55 5.4 8.0
2017-Nov-18 15:20 310 45 5.4 8.0
2017-Nov-18 14:50 310 45 5.4 9.0
2017-Nov-18 14:20 310 46 5.4 9.0
2017-Nov-18 13:50 310 46 5.4 9.0